1431517832026,0.000169901
1431517892026,0.000165692
1431517952026,0.000166869
1431518012026,0.000165597
1431518072026,0.000165190
1431518132026,0.000167608
1431518192026,0.000166781
1431518252026,0.000169264
1431518312026,0.000168841
1431518372026,0.000170161
1431518432026,0.000167604
1431518492026,0.000170016
1431518552026,0.000168893
1431518612026,0.000168041
1431518672026,0.000169080
1431518732026,0.000170111
1431518792026,0.000168789
1431518852026,0.000171418
1431518912026,0.000171548
1431518972026,0.000173153
1431519032026,0.000173227
1431519092026,0.000170998
1431519152026,0.000173345
1431519212026,0.000172857
1431519272026,0.000171911
1431519332026,0.000171826
1431519392026,0.000174443
1431519452026,0.000173605
1431519512026,0.000174214
1431519572026,0.000172467
1431519632026,0.000172682
1431519692026,0.000174335
1431519752026,0.000175113
1431519812026,0.000175020
1431519872026,0.000174091
1431519932026,0.000174121
1431519992026,0.000174905
1431520052026,0.000175203
1431520112026,0.000175559
1431520172026,0.000175681
1431520232026,0.000174869
1431520292026,0.000176208
1431520352026,0.000176540
1431520412026,0.000176481
1431520472026,0.000177255
1431520532026,0.000175616
1431520592026,0.000175473
1431520652026,0.000176555
1431520712026,0.000175997
1431520772026,0.000176775
1431520832026,0.000177325
1431520892026,0.000175341
1431520952026,0.000177873
1431521012026,0.000176132
1431521072026,0.000176786
1431521132026,0.000177338
1431521192026,0.000177610
1431521252026,0.000177968
1431521312026,0.000177333
1431521372026,0.000176932
1431521432026,0.000176478
1431521492026,0.000177631
1431521552026,0.000175793
1431521612026,0.000176634
1431521672026,0.000176217
1431521732026,0.000176136
1431521792026,0.000178991
1431521852026,0.000180616
1431521912026,0.000183486
1431521972026,0.000185233
1431522032026,0.000181991
1431522092026,0.000180245
1431522152026,0.000180030
1431522212026,0.000177746
1431522272026,0.000179210
1431522332026,0.000180450
1431522392026,0.000178560
1431522452026,0.000180986
1431522512026,0.000180017
1431522572026,0.000179754
1431522632026,0.000181285
1431522692026,0.000180773
1431522752026,0.000180570
1431522812026,0.000179602
1431522872026,0.000179654
1431522932026,0.000179845
1431522992026,0.000180224
1431523052026,0.000178604
1431523112026,0.000178831
1431523172026,0.000178205
1431523232026,0.000178948
1431523292026,0.000179169
1431523352026,0.000177023
1431523412026,0.000178226
1431523472026,0.000177602
1431523532026,0.000177656
1431523592026,0.000180910
1431523652026,0.000177383
1431523712026,0.000179805
1431523772026,0.000180322
1431523832026,0.000181275
1431523892026,0.000179164
1431523952026,0.000182991
1431524012026,0.000182221
1431524072026,0.000182110
1431524132026,0.000181325
1431524192026,0.000179946
1431524252026,0.000180329
1431524312026,0.000177273
1431524372026,0.000179365
1431524432026,0.000179414
1431524492026,0.000179460
1431524552026,0.000177518
1431524612026,0.000176759
1431524672026,0.000176964
1431524732026,0.000176352
1431524792026,0.000177326
1431524852026,0.000178478
1431524912026,0.000176321
1431524972026,0.000177854
1431525032026,0.000177817
1431525092026,0.000178199
1431525152026,0.000177418
1431525212026,0.000177922
1431525272026,0.000178323
1431525332026,0.000179474
1431525392026,0.000177897
1431525452026,0.000178517
1431525512026,0.000176744
1431525572026,0.000176249
1431525632027,0.000177569
1431525692027,0.000177913
1431525752027,0.000177064
1431525812027,0.000179262
1431525872027,0.000178053
1431525932027,0.000177583
1431525992027,0.000180106
1431526052027,0.000178390
1431526112027,0.000180316
1431526172027,0.000176356
1431526232027,0.000181690
1431526292027,0.000180318
1431526352027,0.000178555
1431526412027,0.000179798
1431526472027,0.000179563
1431526532027,0.000181015
1431526592027,0.000180990
1431526652027,0.000181731
1431526712027,0.000183065
1431526772027,0.000182670
1431526832027,0.000180160
1431526892027,0.000180283
1431526952027,0.000179274
1431527012027,0.000179330
1431527072027,0.000179486
1431527132027,0.000180163
1431527192027,0.000178216
1431527252027,0.000180716
1431527312027,0.000178625
1431527372027,0.000180017
1431527432027,0.000181758
1431527492027,0.000179702
1431527552027,0.000179331
1431527612027,0.000179213
1431527672027,0.000177809
1431527732027,0.000175785
1431527792027,0.000178172
1431527852027,0.000175887
1431527912027,0.000177570
1431527972027,0.000177189
1431528032027,0.000177329
1431528092027,0.000179248
1431528152027,0.000179071
1431528212027,0.000178484
1431528272027,0.000176302
1431528332027,0.000176966
1431528392027,0.000177347
1431528452027,0.000180359
1431528512027,0.000178387
1431528572027,0.000177004
1431528632027,0.000178698
1431528692027,0.000179001
1431528752027,0.000179761
1431528812027,0.000180649
1431528872027,0.000177881
